Home   Weather   Wildwood   Past weeks
Flag for USA

Past Weather in Wildwood, New Jersey, USA — Yesterday and Last 2 Weeks

Now
81 °F

Clear.


Feels Like: 87 °F
Forecast: 89 / 78 °F
Wind: 10 mph from Southwest

Location: Cape May County Airport

Current Time: Jul 20, 2019 at 3:47:06 am

Latest Report: Jul 20, 2019 at 2:56 am


Visibility: 10 mi

Pressure: 29.90 "Hg

Humidity: 82%

Dew Point: 75 °F

Location of WildwoodLocation

Past Weather in Wildwood — Graph

°F

Wildwood Temperature Yesterday

Maximum temperature yesterday: 91 °F (at 2:56 pm)
Minimum temperature yesterday: 75 °F (at 7:21 am)
Average temperature yesterday: 82 °F

High & Low Weather Summary for the Past Weeks

 TemperatureHumidityPressure
High94 °F (Jul 17, 1:56 pm)100% (Jul 5, 4:17 am)30.13 "Hg (Jul 5, 4:17 am)
Low62 °F (Jul 9, 3:56 am)49% (Jul 15, 3:56 pm)29.75 "Hg (Jul 12, 3:56 am)
Average78 °F80%29.97 "Hg
* Reported Jul 5 1:56 am — Jul 20 1:56 am, Wildwood. Weather by CustomWeather, © 2019

Note: Actual official high and low records may vary slightly from our data, if they occured in-between our weather recording intervals... More about our weather records

Advertising

Wildwood Weather History for the Previous 24 Hours

Scroll right to see more
 ConditionsComfort  
Time TempWeatherWind HumidityBarometerVisibility
1:56 am
Sat, Jul 20
81 °FClear.9 mph82%29.90 "Hg10 mi
12:56 am82 °FClear.9 mph79%29.90 "Hg10 mi
11:56 pm
Fri, Jul 19
83 °FClear.10 mph77%29.90 "Hg10 mi
10:56 pm84 °FClear.9 mph77%29.92 "Hg10 mi
9:56 pm82 °FClear.5 mph77%29.93 "Hg10 mi
8:56 pm81 °FClear.5 mph79%29.91 "Hg10 mi
7:56 pm84 °FSunny.5 mph74%29.90 "Hg10 mi
6:56 pm86 °FSunny.6 mph72%29.89 "Hg10 mi
5:56 pm88 °FSunny.9 mph67%29.90 "Hg10 mi
4:56 pm89 °FSunny.10 mph70%29.92 "Hg10 mi
3:56 pm91 °FSunny.10 mph64%29.92 "Hg10 mi
2:56 pm91 °FSunny.8 mph66%29.93 "Hg10 mi
1:56 pm90 °FSunny.7 mph57%29.95 "Hg10 mi
12:56 pm88 °FScattered clouds.7 mph63%29.96 "Hg10 mi
11:56 am85 °FBroken clouds.7 mph80%29.96 "Hg9 mi
11:31 am82 °FScattered clouds.7 mph89%29.97 "Hg10 mi
11:09 am84 °FPartly sunny.8 mph84%29.97 "Hg10 mi
10:56 am84 °FScattered clouds.8 mph83%29.97 "Hg10 mi
9:56 am82 °FScattered clouds.6 mph85%29.96 "Hg9 mi
8:56 am82 °FScattered clouds.5 mph85%29.95 "Hg10 mi
8:15 am79 °FLow clouds.5 mph89%29.94 "Hg9 mi
7:56 am78 °FLow clouds.No wind93%29.94 "Hg9 mi
7:27 am75 °FFog.3 mph100%29.93 "Hg3 mi
7:21 am75 °FFog.3 mph100%29.93 "Hg1 mi
6:56 am76 °FPartly sunny.5 mph97%29.93 "Hg7 mi
5:17 am77 °FPassing clouds.No wind94%29.91 "Hg10 mi
4:56 am77 °FPassing clouds.No wind96%29.91 "Hg10 mi
3:56 am78 °FClear.No wind93%29.90 "Hg10 mi
Weather by CustomWeather, © 2019

See weather overview